Time,TemperatureF,DewpointF,PressureIn,WindDirection,WindDirectionDegrees,WindSpeedMPH,WindSpeedGustMPH,Humidity,HourlyPrecipIn,Conditions,Clouds,dailyrainin,SoftwareType,DateUTC
2013-04-19 00:07:00,67.4,62.0,29.97,ESE,114,2.0,5.0,84,0.00,,,0.00,weatherlink.com 1.10,2013-04-19 04:07:00,
2013-04-19 00:22:00,67.1,63.0,29.98,SE,133,2.0,4.0,86,0.00,,,0.00,weatherlink.com 1.10,2013-04-19 04:22:00,
2013-04-19 00:37:00,66.8,63.0,29.97,East,98,2.0,5.0,87,0.00,,,0.00,weatherlink.com 1.10,2013-04-19 04:37:00,
2013-04-19 00:52:00,66.5,63.0,29.96,ESE,119,2.0,7.0,88,0.00,,,0.00,weatherlink.com 1.10,2013-04-19 04:52:00,
2013-04-19 01:07:00,66.2,63.0,29.96,ENE,78,1.0,4.0,89,0.00,,,0.00,weatherlink.com 1.10,2013-04-19 05:07:00,
2013-04-19 01:22:00,66.1,63.0,29.95,East,97,1.0,5.0,90,0.00,,,0.00,weatherlink.com 1.10,2013-04-19 05:22:00,
2013-04-19 01:37:00,66.3,63.0,29.94,ESE,121,2.0,4.0,90,0.00,,,0.00,weatherlink.com 1.10,2013-04-19 05:37:00,
2013-04-19 01:52:00,66.3,63.0,29.94,SE,126,2.0,4.0,90,0.00,,,0.00,weatherlink.com 1.10,2013-04-19 05:52:00,
2013-04-19 02:07:00,66.3,64.0,29.93,ESE,122,1.0,4.0,91,0.00,,,0.00,weatherlink.com 1.10,2013-04-19 06:07:00,
2013-04-19 02:22:00,66.3,64.0,29.92,East,91,1.0,7.0,91,0.00,,,0.00,weatherlink.com 1.10,2013-04-19 06:22:00,
2013-04-19 02:37:00,66.5,64.0,29.92,ESE,121,3.0,4.0,92,0.00,,,0.00,weatherlink.com 1.10,2013-04-19 06:37:00,
2013-04-19 02:52:00,66.7,64.0,29.91,ESE,120,1.0,8.0,92,0.00,,,0.00,weatherlink.com 1.10,2013-04-19 06:52:00,
2013-04-19 03:07:00,66.7,64.0,29.90,ESE,113,2.0,5.0,92,0.00,,,0.00,weatherlink.com 1.10,2013-04-19 07:07:00,
2013-04-19 03:22:00,66.7,64.0,29.90,ESE,123,2.0,5.0,92,0.00,,,0.00,weatherlink.com 1.10,2013-04-19 07:22:00,
2013-04-19 03:37:00,66.7,64.0,29.89,SE,137,2.0,3.0,92,0.00,,,0.00,weatherlink.com 1.10,2013-04-19 07:37:00,
2013-04-19 03:52:00,66.6,64.0,29.89,SE,136,0.0,5.0,92,0.00,,,0.00,weatherlink.com 1.10,2013-04-19 07:52:00,
2013-04-19 04:07:00,66.6,65.0,29.89,East,101,1.0,3.0,93,0.00,,,0.00,weatherlink.com 1.10,2013-04-19 08:07:00,
2013-04-19 04:22:00,66.7,64.0,29.89,SE,128,4.0,7.0,92,0.00,,,0.00,weatherlink.com 1.10,2013-04-19 08:22:00,
2013-04-19 04:37:00,66.9,65.0,29.88,SE,124,4.0,9.0,92,0.00,,,0.00,weatherlink.com 1.10,2013-04-19 08:37:00,
2013-04-19 04:52:00,67.2,65.0,29.88,East,101,2.0,6.0,92,0.00,,,0.00,weatherlink.com 1.10,2013-04-19 08:52:00,
2013-04-19 05:07:00,67.3,65.0,29.87,ESE,123,1.0,9.0,92,0.00,,,0.00,weatherlink.com 1.10,2013-04-19 09:07:00,
2013-04-19 05:23:00,67.2,65.0,29.86,ESE,121,5.0,7.0,92,0.00,,,0.00,weatherlink.com 1.10,2013-04-19 09:23:00,
2013-04-19 05:38:00,67.0,65.0,29.86,SE,134,2.0,9.0,92,0.00,,,0.00,weatherlink.com 1.10,2013-04-19 09:38:00,
2013-04-19 05:53:00,66.9,65.0,29.86,West,260,1.0,4.0,92,0.00,,,0.00,weatherlink.com 1.10,2013-04-19 09:53:00,
2013-04-19 06:08:00,66.8,65.0,29.87,WNW,294,2.0,7.0,92,0.00,,,0.00,weatherlink.com 1.10,2013-04-19 10:08:00,
2013-04-19 06:23:00,66.7,64.0,29.87,ESE,119,3.0,5.0,92,0.00,,,0.00,weatherlink.com 1.10,2013-04-19 10:23:00,
2013-04-19 06:38:00,66.8,65.0,29.87,SE,127,2.0,7.0,92,0.00,,,0.00,weatherlink.com 1.10,2013-04-19 10:38:00,
2013-04-19 06:53:00,66.8,65.0,29.87,SE,128,3.0,7.0,92,0.00,,,0.00,weatherlink.com 1.10,2013-04-19 10:53:00,
2013-04-19 07:08:00,67.0,65.0,29.87,SE,126,4.0,7.0,92,0.00,,,0.00,weatherlink.com 1.10,2013-04-19 11:08:00,
2013-04-19 07:23:00,67.2,65.0,29.87,SE,126,2.0,7.0,93,0.00,,,0.00,weatherlink.com 1.10,2013-04-19 11:23:00,
2013-04-19 07:38:00,67.5,65.0,29.87,ENE,77,3.0,9.0,92,0.00,,,0.00,weatherlink.com 1.10,2013-04-19 11:38:00,
2013-04-19 07:53:00,67.7,65.0,29.88,WSW,251,2.0,8.0,92,0.00,,,0.00,weatherlink.com 1.10,2013-04-19 11:53:00,
2013-04-19 08:08:00,68.0,66.0,29.88,ENE,76,1.0,8.0,92,0.00,,,0.00,weatherlink.com 1.10,2013-04-19 12:08:00,
2013-04-19 08:23:00,68.4,66.0,29.88,ESE,108,3.0,7.0,91,0.00,,,0.00,weatherlink.com 1.10,2013-04-19 12:23:00,
2013-04-19 08:38:00,68.9,66.0,29.87,SE,131,3.0,8.0,90,0.00,,,0.00,weatherlink.com 1.10,2013-04-19 12:38:00,
2013-04-19 08:53:00,69.2,66.0,29.88,South,190,1.0,8.0,90,0.00,,,0.00,weatherlink.com 1.10,2013-04-19 12:53:00,
2013-04-19 09:08:00,69.9,67.0,29.87,ESE,119,4.0,8.0,89,0.00,,,0.00,weatherlink.com 1.10,2013-04-19 13:08:00,
2013-04-19 09:23:00,70.5,67.0,29.88,ESE,114,3.0,7.0,88,0.00,,,0.00,weatherlink.com 1.10,2013-04-19 13:23:00,
2013-04-19 09:38:00,70.7,67.0,29.87,SE,139,6.0,14.0,87,0.00,,,0.00,weatherlink.com 1.10,2013-04-19 13:38:00,
2013-04-19 09:53:00,71.1,67.0,29.86,SSE,159,6.0,6.0,87,0.00,,,0.00,weatherlink.com 1.10,2013-04-19 13:53:00,
2013-04-19 10:08:00,71.7,67.0,29.86,SE,136,7.0,11.0,86,0.00,,,0.00,weatherlink.com 1.10,2013-04-19 14:08:00,
2013-04-19 10:23:00,72.0,67.0,29.85,ESE,115,1.0,11.0,85,0.00,,,0.00,weatherlink.com 1.10,2013-04-19 14:23:00,
2013-04-19 10:38:00,72.3,68.0,29.85,SE,126,3.0,7.0,85,0.00,,,0.00,weatherlink.com 1.10,2013-04-19 14:38:00,
2013-04-19 10:53:00,72.9,68.0,29.85,East,100,3.0,8.0,84,0.00,,,0.00,weatherlink.com 1.10,2013-04-19 14:53:00,
2013-04-19 11:08:00,73.7,68.0,29.84,SSE,167,2.0,9.0,82,0.00,,,0.00,weatherlink.com 1.10,2013-04-19 15:08:00,
2013-04-19 11:23:00,74.5,68.0,29.83,SE,125,3.0,10.0,81,0.00,,,0.00,weatherlink.com 1.10,2013-04-19 15:23:00,
2013-04-19 11:38:00,74.9,68.0,29.82,East,92,8.0,15.0,80,0.00,,,0.00,weatherlink.com 1.10,2013-04-19 15:38:00,
2013-04-19 11:53:00,75.6,69.0,29.82,ESE,121,3.0,13.0,79,0.00,,,0.00,weatherlink.com 1.10,2013-04-19 15:53:00,
2013-04-19 12:08:00,75.1,69.0,29.81,ESE,121,4.0,9.0,80,0.00,,,0.00,weatherlink.com 1.10,2013-04-19 16:08:00,
2013-04-19 12:23:00,76.5,69.0,29.80,NE,53,4.0,11.0,78,0.00,,,0.00,weatherlink.com 1.10,2013-04-19 16:23:00,
2013-04-19 12:38:00,78.0,69.0,29.78,SSE,150,2.0,9.0,74,0.00,,,0.00,weatherlink.com 1.10,2013-04-19 16:38:00,
2013-04-19 12:53:00,78.7,69.0,29.78,ESE,110,4.0,14.0,73,0.00,,,0.00,weatherlink.com 1.10,2013-04-19 16:53:00,
2013-04-19 13:08:00,78.6,69.0,29.77,WNW,292,1.0,9.0,72,0.00,,,0.00,weatherlink.com 1.10,2013-04-19 17:08:00,
2013-04-19 13:23:00,78.5,70.0,29.76,SSE,154,1.0,10.0,74,0.00,,,0.00,weatherlink.com 1.10,2013-04-19 17:23:00,
2013-04-19 13:38:00,78.9,70.0,29.76,South,180,4.0,10.0,73,0.00,,,0.00,weatherlink.com 1.10,2013-04-19 17:38:00,
2013-04-19 13:53:00,78.9,70.0,29.75,NE,43,1.0,9.0,73,0.00,,,0.00,weatherlink.com 1.10,2013-04-19 17:53:00,
2013-04-19 14:09:00,79.2,69.0,29.75,ESE,115,4.0,13.0,71,0.00,,,0.00,weatherlink.com 1.10,2013-04-19 18:09:00,
2013-04-19 14:24:00,80.3,70.0,29.75,East,99,6.0,9.0,70,0.00,,,0.00,weatherlink.com 1.10,2013-04-19 18:24:00,
2013-04-19 14:39:00,80.3,69.0,29.74,ESE,119,2.0,11.0,68,0.00,,,0.00,weatherlink.com 1.10,2013-04-19 18:39:00,
2013-04-19 14:54:00,80.2,69.0,29.74,West,274,3.0,16.0,68,0.00,,,0.00,weatherlink.com 1.10,2013-04-19 18:54:00,
2013-04-19 15:09:00,80.6,68.0,29.74,East,91,3.0,12.0,65,0.00,,,0.00,weatherlink.com 1.10,2013-04-19 19:09:00,
2013-04-19 15:24:00,79.4,67.0,29.74,SE,124,4.0,14.0,66,0.00,,,0.00,weatherlink.com 1.10,2013-04-19 19:24:00,
2013-04-19 15:39:00,79.1,67.0,29.74,ENE,61,5.0,12.0,66,0.00,,,0.00,weatherlink.com 1.10,2013-04-19 19:39:00,
2013-04-19 15:54:00,78.2,67.0,29.74,East,95,3.0,14.0,68,0.00,,,0.00,weatherlink.com 1.10,2013-04-19 19:54:00,
2013-04-19 16:09:00,72.0,67.0,29.73,SW,214,1.0,10.0,85,0.00,,,0.00,weatherlink.com 1.10,2013-04-19 20:09:00,
2013-04-19 16:24:00,70.4,67.0,29.73,SE,128,3.0,5.0,89,0.00,,,0.00,weatherlink.com 1.10,2013-04-19 20:24:00,
2013-04-19 16:39:00,70.3,68.0,29.73,SSE,150,0.0,4.0,91,0.00,,,0.00,weatherlink.com 1.10,2013-04-19 20:39:00,
2013-04-19 16:54:00,70.4,68.0,29.76,ESE,106,4.0,5.0,92,0.00,,,0.00,weatherlink.com 1.10,2013-04-19 20:54:00,
2013-04-19 17:09:00,66.5,65.0,29.78,NE,53,3.0,20.0,93,0.00,,,0.00,weatherlink.com 1.10,2013-04-19 21:09:00,
2013-04-19 17:24:00,65.8,64.0,29.77,SSW,213,2.0,8.0,95,0.00,,,0.00,weatherlink.com 1.10,2013-04-19 21:24:00,
2013-04-19 17:39:00,66.1,65.0,29.76,ESE,113,5.0,8.0,96,0.00,,,0.00,weatherlink.com 1.10,2013-04-19 21:39:00,
2013-04-19 17:54:00,66.4,65.0,29.74,East,98,1.0,8.0,96,0.00,,,0.00,weatherlink.com 1.10,2013-04-19 21:54:00,
2013-04-19 18:09:00,66.5,65.0,29.74,ESE,123,1.0,7.0,96,0.00,,,0.00,weatherlink.com 1.10,2013-04-19 22:09:00,
2013-04-19 18:24:00,66.3,65.0,29.75,ESE,121,1.0,9.0,95,0.00,,,0.00,weatherlink.com 1.10,2013-04-19 22:24:00,
2013-04-19 18:39:00,66.1,65.0,29.75,SW,220,1.0,7.0,95,0.00,,,0.00,weatherlink.com 1.10,2013-04-19 22:39:00,
2013-04-19 18:54:00,66.1,65.0,29.74,ESE,118,2.0,5.0,96,0.00,,,0.00,weatherlink.com 1.10,2013-04-19 22:54:00,
2013-04-19 19:09:00,66.0,65.0,29.75,East,84,1.0,8.0,96,0.00,,,0.00,weatherlink.com 1.10,2013-04-19 23:09:00,
2013-04-19 19:24:00,66.1,65.0,29.76,ESE,117,5.0,8.0,96,0.00,,,0.00,weatherlink.com 1.10,2013-04-19 23:24:00,
2013-04-19 19:39:00,66.1,65.0,29.77,SE,127,1.0,6.0,96,0.00,,,0.00,weatherlink.com 1.10,2013-04-19 23:39:00,
2013-04-19 19:54:00,65.7,64.0,29.78,ESE,111,8.0,8.0,95,0.00,,,0.00,weatherlink.com 1.10,2013-04-19 23:54:00,
2013-04-19 20:09:00,65.2,64.0,29.78,SW,225,3.0,10.0,94,0.00,,,0.00,weatherlink.com 1.10,2013-04-20 00:09:00,
2013-04-19 20:24:00,64.4,62.0,29.79,SSE,161,1.0,12.0,93,0.00,,,0.00,weatherlink.com 1.10,2013-04-20 00:24:00,
2013-04-19 20:54:00,61.8,59.0,29.80,SE,144,0.0,6.0,91,0.00,,,0.00,weatherlink.com 1.10,2013-04-20 00:54:00,
2013-04-19 21:09:00,60.2,57.0,29.79,SSE,162,1.0,7.0,89,0.00,,,0.00,weatherlink.com 1.10,2013-04-20 01:09:00,
2013-04-19 21:24:00,59.1,55.0,29.78,East,101,2.0,6.0,86,0.00,,,0.00,weatherlink.com 1.10,2013-04-20 01:24:00,
2013-04-19 21:39:00,58.0,54.0,29.79,ESE,119,0.0,5.0,87,0.00,,,0.00,weatherlink.com 1.10,2013-04-20 01:39:00,
2013-04-19 21:54:00,57.6,54.0,29.82,SE,132,1.0,5.0,89,0.00,,,0.00,weatherlink.com 1.10,2013-04-20 01:54:00,
2013-04-19 22:09:00,57.4,53.0,29.81,WSW,256,3.0,8.0,86,0.00,,,0.00,weatherlink.com 1.10,2013-04-20 02:09:00,
2013-04-19 22:24:00,57.2,54.0,29.82,SW,226,1.0,5.0,89,0.00,,,0.00,weatherlink.com 1.10,2013-04-20 02:24:00,
2013-04-19 22:39:00,57.0,53.0,29.84,East,98,3.0,13.0,87,0.00,,,0.00,weatherlink.com 1.10,2013-04-20 02:39:00,
2013-04-19 22:54:00,56.6,53.0,29.84,NW,318,2.0,5.0,86,0.00,,,0.00,weatherlink.com 1.10,2013-04-20 02:54:00,
2013-04-19 23:09:00,56.3,53.0,29.86,South,186,3.0,7.0,89,0.00,,,0.00,weatherlink.com 1.10,2013-04-20 03:09:00,
2013-04-19 23:25:00,55.9,53.0,29.87,East,100,2.0,8.0,91,0.00,,,0.00,weatherlink.com 1.10,2013-04-20 03:25:00,
2013-04-19 23:40:00,55.3,53.0,29.86,SSE,148,0.0,6.0,90,0.00,,,0.00,weatherlink.com 1.10,2013-04-20 03:40:00,
2013-04-19 23:55:00,54.9,52.0,29.87,West,259,1.0,6.0,90,0.00,,,0.00,weatherlink.com 1.10,2013-04-20 03:55:00,